Preview of NWS' New Version of Forecast
This preview is not operational and should not be used for support decisions.
Latest weather observations around

Minden Airport (KMNE)

Using English Units (Switch to International System of Units)
Date/ Time (CDT) Wind (mph) Vis. (mi) Weather Sky Cond. Temp (°F) Rel. Humidity Wind Chill (°F) Heat Index (°F) Pressure Precip. (in)
Air Dwpt 6 hour Altimeter (inHg) Sea level (inHg) 1 hr 3 hr 6 hr
Max Min
Sep 20 15:35 SSE 8 10 Partly Cloudy SCT019 SCT025 SCT120 83 75     75%   91 30.06        
Sep 20 15:15 SSE 9 10 Mostly Cloudy SCT017 BKN120 83 75     76%   90 30.06        
Sep 20 14:55 SSE 7 10 Mostly Cloudy SCT017 BKN110 82 74     77%   89 30.06        
Sep 20 14:35 SSE 8 10 Cloudy OVC110 81 74     79%   87 30.08        
Sep 20 14:15 SE 9 10 Cloudy SCT016 OVC110 81 74     79%   85 30.08        
Sep 20 13:55 ESE 7 10 Mostly Cloudy SCT018 SCT090 BKN120 81 73     79%   85 30.08        
Sep 20 13:35 SE 10 10 Mostly Cloudy SCT018 SCT090 BKN110 81 73     76%   86 30.09        
Sep 20 13:15 SE 9 10 Partly Cloudy SCT110 82 73     75%   87 30.09        
Sep 20 12:55 SE 7 10 Cloudy SCT016 BKN070 OVC100 81 72     74%   85 30.09       0
Sep 20 12:35 ESE 3 10 Cloudy SCT049 OVC060 78 72     83%   79 30.1        
Sep 20 12:15 SSE 5 10 Cloudy BKN060 OVC080 77 72     83%   79 30.1        
Sep 20 11:55 ESE 3 10 Cloudy SCT041 SCT050 OVC090 77 71     83%   78 30.1        
Sep 20 11:35 ESE 5 10 Cloudy SCT043 BKN075 OVC090 77 71     83%   78 30.1        
Sep 20 11:15 ESE 3 10 Cloudy SCT050 BKN060 OVC080 76 72     86%   77 30.1        
Sep 20 10:55 SE 8 10 Cloudy SCT044 BKN050 OVC085 76 72     88%   77 30.11        
Sep 20 10:35 SE 5 10 Cloudy SCT008 BKN050 OVC085 75 72     90%   77 30.1        
Sep 20 10:15 ESE 6 10 Cloudy SCT046 OVC085 75 72     92%   76 30.1        
Sep 20 09:55 SE 6 10 Cloudy OVC085 74 72     93%   76 30.09     0  
Sep 20 09:35 SE 3 10 Cloudy SCT006 OVC085 73 72     95%   75 30.09        
Sep 20 09:15 SSE 3 10 Cloudy SCT065 OVC085 73 71     95%   74 30.08        
Sep 20 08:55 SSE 3 10 Cloudy OVC065 72 71     95%   74 30.08        
Sep 20 08:35 Calm 10 Cloudy SCT065 OVC090 72 71     94%   74 30.08        
Sep 20 08:15 Calm 10 Cloudy OVC090 72 70     94%   73 30.06        
Sep 20 07:55 Calm 10 Cloudy OVC090 72 70     93%   73 30.05   0    
Sep 20 07:35 ESE 6 10 Light Rain OVC090 72 70     93%   73 30.04   0    
Sep 20 07:15 E 6 10 Rain SCT070 OVC080 72 70     94%   73 30.04   0    
Sep 20 06:55 E 7 10 Light Rain SCT041 SCT060 OVC070 71 69     94%   72 30.04   0   0
Sep 20 06:35 ESE 8 3 Rain SCT011 BKN035 OVC055 71 70     95%   73 30.05   0    
Sep 20 06:15 ESE 8 5 Heavy Rain SCT006 BKN027 OVC036 72 71     95%   74 30.04   0    
Sep 20 05:55 ESE 8 4 Heavy Rain SCT008 BKN031 OVC055 73 71     95%   74 30.04   0    
Sep 20 05:35 Calm 10 Drizzle BKN008 BKN028 OVC100 73 71     94%   74 30.04   0    
Sep 20 05:15 Calm 7 Rain BKN010 BKN013 OVC100 73 71     94%   74 30.04        
Sep 20 04:55 Calm 7 Light Rain SCT014 BKN018 OVC024 73 71     92%   75 30.04        
Sep 20 04:35 Calm 10 Cloudy SCT012 OVC018 74 71     91%   75 30.04        
Sep 20 04:15 Calm 10 Light Rain BKN013 OVC024 74 71     90%   75 30.03        
Sep 20 03:55 Calm 10 Cloudy SCT011 BKN026 OVC032 74 70     90%   75 30.04        
Sep 20 03:35 Calm 10 Light Drizzle BKN026 OVC032 74 70     89%   75 30.03        
Sep 20 02:55 SSE 3 10 Light Rain SCT034 BKN045 OVC050 74 70     86%   75 30.02        
Sep 20 02:35 SE 5 10 Cloudy SCT034 OVC043 75 69     82%   76 30.02        
Sep 20 02:15 ESE 6 10 Mostly Cloudy BKN034 BKN041 75 69     81%   76 30.02        
Sep 20 01:55 ESE 6 10 Partly Cloudy SCT032 75 69     80%   76 30.02        
Sep 20 01:35 ESE 5 10 Clear CLR 75 69     79%   76 30.01        
Sep 20 01:15 ESE 3 10 Clear CLR 76 69     80%   77 30.01        
Sep 20 00:55 SE 3 10 Clear CLR 76 69     80%   77 30.01        
Sep 20 00:35 Calm 10 Mostly Cloudy SCT075 BKN090 76 69     78%   77 30.01        
Sep 20 00:15 E 3 10 Cloudy OVC065 76 69     78%   77 30.01        
Sep 19 23:55 E 5 10 Cloudy BKN065 OVC080 76 69     77%   77 30.01        
Sep 19 23:35 E 3 10 Cloudy BKN065 BKN080 OVC100 76 69     79%   77 30.01        
Sep 19 23:15 E 5 10 Cloudy BKN065 OVC075 76 70     80%   78 30.02        
Sep 19 22:55 Calm 10 Cloudy BKN070 OVC090 76 70     80%   78 30.01        
Sep 19 22:35 E 5 10 Mostly Cloudy BKN085 BKN095 BKN120 76 70     80%   77 30.01        
Sep 19 22:15 E 5 10 Partly Cloudy SCT075 SCT120 76 69     79%   77 30        
Sep 19 21:55 E 6 10 Partly Cloudy SCT120 76 69     79%   77 29.99        
Sep 19 21:35 E 6 10 Partly Cloudy SCT120 76 69     80%   77 29.99        
Sep 19 21:15 E 5 10 Mostly Cloudy BKN120 76 69     79%   77 29.99        
Sep 19 20:55 E 3 10 Mostly Cloudy BKN120 76 68     78%   77 29.99        
Sep 19 20:35 Calm 10 Partly Cloudy SCT055 SCT085 SCT120 76 68     77%   77 29.98        
Sep 19 20:15 Calm 10 Partly Cloudy SCT055 76 68     76%   77 29.98        
Sep 19 19:55 Calm 10 Clear CLR 76 67     75%   77 29.97        
Sep 19 19:35 Calm 10 Clear CLR 76 67     74%   77 29.98        
Sep 19 19:15 SE 6 10 Clear CLR 76 67     73%   77 29.98        
Sep 19 18:55 SE 3 10 Clear CLR 77 67     71%   78 29.98        
Sep 19 18:35 SSE 5 10 Clear CLR 78 67     70%   78 29.98        
Sep 19 18:15 SSE 5 10 Partly Cloudy SCT100 78 67     69%   79 29.98        
Sep 19 17:55 S 7 10 Mostly Cloudy SCT043 BKN100 78 67     68%   79 29.99        
Sep 19 17:35 S 11 10 Mostly Cloudy SCT037 BKN043 BKN100 79 67     67%   80 29.99        
Sep 19 17:15 S 13 10 Mostly Cloudy SCT029 BKN039 BKN100 80 68     66%   83 29.99        
Sep 19 16:55 SSE 10 10 Cloudy BKN031 OVC038 80 69     69%   84 29.99        
Sep 19 16:35 SSE 8 10 Mostly Cloudy BKN033 BKN038 80 69     69%   83 29.99        
Sep 19 16:15 S 10 10 Mostly Cloudy SCT032 BKN040 82 68     63%   85 29.99        
Sep 19 15:55 SSE 13 10 Mostly Cloudy BKN038 83 67     58%   86 29.99        
Sep 19 15:35 SE 15 10 Partly Cloudy SCT040 84 67     57%   87 29.98        
Sep 19 15:15 SE 11 10 Partly Cloudy SCT044 SCT070 86 67     52%   89 29.97        
Sep 19 14:55 SE 14 10 Partly Cloudy SCT070 85 66     52%   87 29.97        
Sep 19 14:35 SSE 16 10 Clear CLR 88 64     45%   90 29.97        
Sep 19 14:15 S 15 7 Partly Cloudy SCT060 90 63     41%   91 29.97        
Sep 19 13:55 S 10 10 Partly Cloudy SCT060 SCT075 90 64     41%   92 29.97        
Sep 19 13:35 S 16 10 Partly Cloudy SCT050 SCT075 90 63     41%   91 29.98        
Sep 19 13:15 S 15 10 Partly Cloudy SCT050 90 65     45%   92 29.99        
Sep 19 12:55 SSE 8 10 Partly Cloudy SCT050 89 67     49%   92 30        
Sep 19 12:35 SE 11 10 Partly Cloudy SCT002 85 67     55%   88 30.01        
Sep 19 12:15 SSE 10 10 Clear CLR 88 68     52%   91 30        
Sep 19 11:55 S 9 10 Partly Cloudy SCT036 86 70     59%   91 30        
Sep 19 11:35 SE 10 10 Partly Cloudy SCT036 SCT080 86 70     60%   90 30        
Sep 19 11:15 SE 13 10 Partly Cloudy SCT080 85 70     60%   90 30        
Sep 19 10:55 SSE 8 10 Partly Cloudy SCT080 84 70     63%   89 30        
Sep 19 10:35 SE 11 10 Partly Cloudy SCT018 SCT031 84 72     66%   89 29.99        
Sep 19 10:15 SE 9 10 Partly Cloudy SCT018 SCT080 82 73     75%   88 29.99        
Sep 19 09:55 SE 8 10 Clear CLR 81 74     79%   86 29.99        
Sep 19 09:35 ESE 9 10 Clear CLR 80 73     80%   84 29.99        
Sep 19 09:15 SE 9 10 Clear CLR 79 73     82%   82 29.99        
Sep 19 08:55 E 6 10 Clear CLR 77 72     86%   78 29.97        
Sep 19 08:35 ESE 6 10 Partly Cloudy SCT085 76 72     88%   77 29.97        
Sep 19 08:15 ESE 7 10 Partly Cloudy SCT003 74 72     91%   76 29.97        
Sep 19 07:55 E 5 10 Clear CLR 73 71     93%   74 29.96        
Sep 19 07:35 ESE 6 10 Partly Cloudy SCT110 73 71     93%   74 29.96        
Sep 19 07:15 E 5 10 Mostly Cloudy SCT065 SCT080 BKN110 73 71     92%   75 29.96        
Sep 19 06:55 ESE 3 10 Mostly Cloudy BKN065 BKN090 BKN110 73 71     92%   75 29.96        
Sep 19 06:35 ESE 3 10 Partly Cloudy SCT065 SCT075 SCT090 73 71     92%   75 29.96        
Sep 19 06:15 ESE 3 10 Partly Cloudy SCT090 74 71     92%   75 29.95        
Sep 19 05:55 E 5 10 Cloudy SCT019 BKN080 OVC090 74 71     92%   75 29.95        
Sep 19 05:35 E 3 10 Cloudy OVC075 74 71     92%   75 29.95        
Sep 19 05:15 E 3 10 Cloudy SCT075 BKN100 OVC120 74 71     92%   75 29.94        
Sep 19 04:55 E 3 10 Partly Cloudy SCT090 SCT110 74 71     91%   75 29.95        
Sep 19 04:35 E 5 10 Clear CLR 74 71     91%   75 29.95        
Sep 19 04:15 ESE 3 10 Clear CLR 74 71     91%   75 29.94        
Sep 19 03:55 E 3 10 Clear CLR 74 71     91%   75 29.94        
Sep 19 03:35 E 3 10 Clear CLR 74 71     91%   75 29.94        
Sep 19 03:15 Calm 10 Partly Cloudy SCT100 74 71     92%   75 29.94        
Sep 19 02:55 E 3 10 Partly Cloudy SCT100 74 72     93%   75 29.95        
Sep 19 02:35 E 3 10 Clear CLR 74 72     94%   75 29.95        
Sep 19 02:15 E 3 10 Clear CLR 74 72     94%   75 29.95        
Sep 19 01:55 E 3 10 Clear CLR 74 72     94%   75 29.95        
Sep 19 01:35 ESE 3 10 Clear CLR 74 72     94%   75 29.95        
Sep 19 01:15 Calm 10 Clear CLR 74 72     94%   75 29.95        
Sep 19 00:55 ESE 3 10 Clear CLR 74 72     94%   75 29.95        
Sep 19 00:35 E 3 10 Clear CLR 74 72     93%   76 29.96        
Sep 19 00:15 Calm 10 Clear CLR 74 72     94%   76 29.96        
Sep 18 23:55 Calm 7 Clear CLR 75 72     93%   76 29.96        
Sep 18 23:35 Calm 10 Clear CLR 75 73     93%   76 29.96        
Sep 18 23:15 Calm 10 Clear CLR 75 73     92%   77 29.96        
Sep 18 22:55 ESE 3 10 Clear CLR 75 73     92%   77 29.96        
Sep 18 22:35 Calm 10 Clear CLR 76 73     93%   77 29.96        
Sep 18 22:15 Calm 10 Clear CLR 76 73     93%   77 29.95        
Sep 18 21:55 Calm 10 Clear CLR 76 74     94%   77 29.95        
Sep 18 21:35 ESE 3 10 Partly Cloudy SCT007 76 74     94%   77 29.95        
Sep 18 21:15 ESE 5 10 Partly Cloudy SCT007 76 74     92%   78 29.95        
Sep 18 20:55 ESE 6 10 Partly Cloudy SCT100 76 74     93%   78 29.95        
Sep 18 20:35 Calm 10 Partly Cloudy SCT100 76 74     93%   78 29.94        
Sep 18 20:15 ESE 3 10 Clear CLR 76 74     92%   78 29.94        
Sep 18 19:55 Calm 10 Clear CLR 76 74     92%   78 29.93        
Sep 18 19:35 E 3 10 Clear CLR 76 74     91%   78 29.94        
Sep 18 19:15 Calm 10 Clear CLR 77 74     91%   78 29.93        
Sep 18 18:55 ESE 5 10 Partly Cloudy SCT110 77 74     90%   79 29.94       0
Sep 18 18:35 ESE 6 10 Partly Cloudy SCT110 77 74     90%   79 29.93        
Sep 18 18:15 ESE 8 10 Partly Cloudy SCT080 SCT110 77 74     90%   79 29.94        
Sep 18 17:55 ESE 6 10 Mostly Cloudy SCT080 BKN110 77 74     90%   79 29.94        
Sep 18 17:35 ESE 7 10 Light Rain SCT036 SCT046 77 74     90%   78 29.94        
Sep 18 17:15 ESE 7 10 Light Rain SCT036 SCT044 SCT050 77 73     89%   79 29.94        
Sep 18 16:55 ESE 7 10 Mostly Cloudy SCT037 SCT046 BKN055 77 74     88%   79 29.95        
Sep 18 16:35 ESE 7 10 Partly Cloudy SCT034 SCT041 78 73     86%   79 29.95        
Sep 18 16:15 SSE 8 10 Partly Cloudy SCT033 SCT041 SCT110 78 74     87%   79 29.96        
Sep 18 15:55 E 8 10 Partly Cloudy SCT037 SCT045 SCT110 77 74     88%   79 29.95     0  
Sep 18 15:35 E 6 10 Partly Cloudy SCT037 SCT045 SCT110 76 73     90%   78 29.94        
Sep 18 15:15 E 6 10 Partly Cloudy SCT110 76 73     92%   77 29.94        
Sep 18 14:55 E 5 10 Light Drizzle SCT049 SCT070 SCT090 75 72     93%   76 29.95   0    
Notice The following observation data may not be complete
Sep 18 14:35 NNE 3 10 Light Rain SCT033 BKN047 OVC090   71      %     29.96   0    
Sep 18 13:55   3 Haze SCT034 BKN047 BKN070 89 70     54%   95 29.98        
Sep 18 13:35 SE 8 10 Partly Cloudy SCT045 SCT050 SCT060 94 71     47%   101 29.93        
Sep 18 13:15 SE 10 10 Mostly Cloudy SCT044 SCT050 BKN060 95 72     48%   103 29.94        
Sep 18 12:55 SE 9 10 Partly Cloudy SCT042 SCT048 SCT060 92 72     53%   100 29.96        
Sep 18 12:35 ESE 13 10 Mostly Cloudy SCT042 SCT050 BKN070 92 72     52%   100 29.96        
Sep 18 12:15 E 7 10 Mostly Cloudy SCT040 BKN048 BKN050 91 72     54%   98 29.97        
Sep 18 11:55 ESE 8 10 Mostly Cloudy SCT038 BKN046 90 72     55%   98 29.97        
Notice The following observation data may not be complete
Sep 18 11:35   10 Mostly Cloudy BKN034 BKN041          %              
Notice The following observation data may not be complete
Sep 18 11:15   10 Partly Cloudy SCT030          %              
Notice The following observation data may not be complete
Sep 18 10:55   10 Clear CLR          %              
Sep 18 09:15 E 6 10 Clear CLR 80 72     78%   84 30        
Sep 18 08:55 E 3 10 Clear CLR 77 72     83%   79 29.99        
Sep 18 08:35 E 3 10 Clear CLR 76 71     84%   78 29.99        
Sep 18 08:15 E 6 10 Clear CLR 76 71     87%   77 29.99        
Sep 18 07:55 E 3 10 Clear CLR 75 71     88%   76 29.98        
Sep 18 07:35 E 3 10 Clear CLR 74 71     89%   76 29.99        
Sep 18 07:15 E 6 10 Clear CLR 74 71     90%   75 29.98        
Sep 18 06:55 E 3 7 Clear CLR 74 71     90%   75 29.97        
Sep 18 06:35 Calm 10 Clear CLR 74 71     90%   75 29.97        
Sep 18 06:15 E 3 10 Clear CLR 74 71     90%   75 29.97        
Sep 18 05:55 E 3 10 Clear CLR 74 71     90%   75 29.96        
Sep 18 05:35 E 3 10 Clear CLR 74 71     90%   75 29.96        
Sep 18 05:15 E 3 10 Clear CLR 73 70     90%   75 29.95        
Sep 18 04:55 E 3 10 Clear CLR 73 70     90%   75 29.95        
Sep 18 04:35 Calm 10 Clear CLR 73 70     90%   74 29.95        
Sep 18 04:15 Calm 10 Clear CLR 74 70     90%   75 29.95        
Sep 18 03:55 Calm 10 Clear CLR 74 70     87%   76 29.95        
Sep 18 03:35 Calm 10 Clear CLR 74 70     87%   76 29.95        
Sep 18 03:15 Calm 10 Clear CLR 74 70     87%   76 29.95        
Sep 18 02:55 Calm 10 Clear CLR 75 70     86%   76 29.96        
Sep 18 02:35 Calm 10 Clear CLR 75 70     86%   76 29.96        
Sep 18 02:15 Calm 10 Clear CLR 75 70     86%   76 29.97        
Sep 18 01:55 Calm 10 Clear CLR 76 70     84%   77 29.96        
Sep 18 01:35 Calm 10 Clear CLR 76 71     84%   77 29.96        
Sep 18 01:15 Calm 10 Clear CLR 76 71     83%   77 29.96        
Sep 18 00:55 Calm 10 Clear CLR 77 71     81%   78 29.96        
Sep 18 00:35 Calm 10 Clear CLR 77 71     80%   79 29.96        
Sep 18 00:15 Calm 10 Clear CLR 78 71     79%   79 29.97        
Sep 17 23:55 Calm 10 Clear CLR 78 71     78%   79 29.97        
Sep 17 23:35 Calm 10 Clear CLR 80 71     74%   83 29.97        
Sep 17 23:15 Calm 10 Clear CLR 80 71     73%   84 29.98        
Sep 17 22:55 S 3 10 Clear CLR 81 71     72%   85 29.98        
Sep 17 22:35 Calm 10 Clear   81 71     71%   86 29.97        
Sep 17 22:15 SSE 5 10 Clear   82 72     70%   87 29.98        
Sep 17 21:55 S 5 10 Clear   84 71     65%   88 29.97        
Sep 17 21:35 SE 3 10 Clear CLR 83 70     65%   88 29.97        
Sep 17 21:15 Calm 10 Clear CLR 84 70     63%   89 29.96        
Sep 17 20:55 SE 3 10 Clear CLR 85 70     60%   90 29.95        
Sep 17 20:35 Calm 10 Clear CLR 86 69     57%   91 29.95        
Sep 17 20:15 S 3 7 Clear CLR 87 69     54%   91 29.95        
Sep 17 19:55 SSE 5 10 Clear CLR 87 68     54%   90 29.94        
Sep 17 19:35 Calm 10 Clear CLR 88 69     53%   92 29.93        
Sep 17 19:15 Calm 10 Clear CLR 90 68     48%   94 29.92        
Sep 17 18:55 Calm 10 Clear CLR 92 67     45%   95 29.92        
Sep 17 18:35 ESE 3 10 Clear CLR 92 67     43%   96 29.92        
Sep 17 18:15 SE 3 10 Clear CLR 93 67     43%   97 29.93        
Sep 17 17:55 SE 6 10 Partly Cloudy SCT080 93 67     42%   97 29.93        
Sep 17 17:35 ESE 6 10 Partly Cloudy SCT065 SCT080 95 67     40%   99 29.93        
Sep 17 17:15 SE 6 10 Partly Cloudy SCT065 95 67     40%   99 29.93        
Sep 17 16:55 ESE 9 10 Clear CLR 95 66     38%   99 29.93        
Sep 17 16:35 E 6 10 Partly Cloudy SCT090 94 66     40%   98 29.94        
Sep 17 16:15 E 13 10 Clear CLR 97 67     37%   101 29.94        
Sep 17 15:55 SE 7 10 Partly Cloudy SCT080 SCT090 97 67     38%   101 29.94        
Sep 17 15:35 E 5 10 Partly Cloudy SCT065 SCT080 SCT120 95 67     41%   99 29.95        
Sep 17 15:15 ESE 8 10 Partly Cloudy SCT080 SCT095 95 67     41%   99 29.96        
Sep 17 14:55 ESE 11 10 Partly Cloudy SCT060 SCT070 94 67     41%   99 29.97        
Sep 17 14:35 ESE 9 10 Partly Cloudy SCT065 SCT070 96 68     39%   101 29.98        
Sep 17 14:15 SE 7 10 Partly Cloudy SCT060 SCT075 95 68     42%   100 29.99        
May 15 10:35 NW 3 10 Clear CLR 81 66     59%   83 30.02        
May 15 08:35 NNW 6 10 Clear CLR 78 67     70%   78 30.01        
Notice The following observation data may not be complete
May 14 16:15   10 Clear CLR          %              
May 14 09:15 SW 6 10 Partly Cloudy SCT010 78 71     78%   79 30.06        
May 14 07:15 Calm 10 Clear CLR 71 69     95%   72 30.05        
May 13 22:55 Calm 10 Clear CLR 76 70     81%   77 30        
May 13 11:15 S 3 10 Cloudy SCT023 OVC028 82 70     68%   85 30.11        
May 13 06:35 Calm 7 Cloudy OVC007 71 68     92%   72 30.06        
Notice The following observation data may not be complete
May 13 00:15   10 Clear CLR          %              
May 12 22:15 Calm 10 Clear CLR 75 68     78%   76 30.02        
May 12 15:35 SSE 7 10 Mostly Cloudy BKN047 BKN070 90 66     45%   93 30.03        
May 12 13:55 S 3 10 Partly Cloudy SCT038 87 67     53%   90 30.04        
May 12 09:15 S 3 10 Cloudy OVC007 73 69     87%   74 30.1        
May 12 03:15 SSE 5 10 Clear   71 66     86%   71 30        
May 12 01:55 SSE 5 10 Clear CLR 72 66     81%   73 30.01        
May 12 00:55 S 7 10 Clear CLR 74 65     75%   74 30.02        
May 11 22:15 SE 5 10 Clear CLR 77 64     64%   77 29.99        
May 11 21:15 SE 5 10 Clear CLR 76 65     69%   76 29.96        
May 11 17:35 S 9 10 Clear CLR 88 62     43%   88 29.96        
May 11 13:55 S 11 10 Mostly Cloudy BKN048 BKN060 86 63     46%   87 30.02        
May 11 11:55 SW 16 10 Partly Cloudy SCT038 83 64     53%   85 30.06        
Notice The following observation data may not be complete
Jun 11 21:35   10 Clear            %              
Notice The following observation data may not be complete
Jun 11 19:15   10 Partly Cloudy SCT050          %              
Jun 11 13:35 Calm 10 Partly Cloudy SCT037 SCT045 SCT055 87 69     55%   92 30.02        
Jun 11 10:15 S 6 10 Mostly Cloudy SCT025 BKN029 82 69     65%   85 30.04        
Jun 11 08:35 S 3 10 Clear CLR 78 68     73%   78 30.03        
Jun 11 03:15 SSE 3 10 Partly Cloudy SCT075 75 69     81%   76 29.98        
Jun 11 02:15 S 3 10 Cloudy OVC075 76 69     77%   77 29.99        
Jun 10 23:15 SE 6 10 Cloudy SCT045 BKN060 OVC070 78 68     71%   79 29.97        
Jun 10 17:15 S 6 10 Clear CLR 87 62     42%   88 29.93        
Notice The following observation data may not be complete
Jun 10 15:15   10 Partly Cloudy SCT050          %              
Jun 10 12:55 SSE 6 10 Partly Cloudy SCT046 85 61     45%   85 29.99        
Jun 10 10:15 SSE 6 10 Clear CLR 80 63     56%   81 30        
Jun 10 04:15 ESE 3 10 Mostly Cloudy BKN050 67 61     82%     29.93        
Notice The following observation data may not be complete
Jun 10 02:35   10 Partly Cloudy SCT050          %              
Jun 09 19:35 Calm 10 Clear CLR 78 61     57%   78 29.91        
Jun 09 11:35 Calm 10 Mostly Cloudy SCT050 BKN060 79 53     41%   78 29.99        
Jun 09 07:35 Calm 10 Clear CLR 69 59     72%     29.96        
Jun 09 04:15 E 3 10 Clear CLR 64 58     81%     29.93        
Jun 08 22:55 Calm 10 Clear CLR 66 62     86%     29.94        
Notice The following observation data may not be complete
Jun 08 20:15   10 Clear CLR          %              
Jun 08 12:55 E 5 10 Clear CLR 82 52     36%   81 30.01        
Jun 08 08:35 N 3 10 Clear   69 60     73%     30.03        
Notice The following observation data may not be complete
Jun 08 00:35   10 Clear CLR          %              
Jun 07 22:35 Calm 10 Clear CLR 70 59     69%     29.97        
Notice The following observation data may not be complete
Jun 07 16:15   10 Clear CLR          %              
Jun 07 07:35 Calm 10 Clear CLR 71 64     79%   72 29.92        
Jun 06 13:55 N 10 10 Mostly Cloudy BKN026 BKN060 85 72     65%   90 29.78        
Jun 06 13:35 N 10 10 Clear CLR 84 72     67%   90 29.78        
Jun 06 12:15 NNE 7 10 Partly Cloudy SCT025 SCT032 SCT038 82 70     69%   86 29.79        
Jun 06 00:15 Calm 10 Partly Cloudy SCT030 SCT048 72 69     91%   73 29.78        
Notice The following observation data may not be complete
Jun 05 21:15   10 Clear CLR          %              
Notice The following observation data may not be complete
Jun 05 20:15   10 Clear CLR          %              
Jun 05 15:15 Calm 10 Mostly Cloudy SCT028 BKN034 BKN049 83 68     61%   86 29.74        
Jun 05 14:15 Calm 10 Cloudy BKN026 OVC050 81 69     66%   84 29.76